Location: Pl�tzky
(52.0521°N, 11.8020°E)
Time: 16:15:42
(UTC+00:00)

Cosmos 2360 Rocket - Pass Details

Date: 22 November 2019
Orbit: 832 x 847 km, 71.0° (Epoch: 14 December)

Event Time Altitude Azimuth Distance (km) Brightness Sun altitude
Rises 18:24:29 0° 192° (SSW) 3,381 5.4 -28.9°
Reaches altitude 10° 18:26:57 10° 188° (S) 2,453 4.6 -29.2°
Enters shadow 18:27:59 16° 185° (S) 2,079 4.2 -29.4°
